Погода в Альшиховом

Россия / Республика Татарстан     54°56′08″N   48°10′05″E
темп.,
°C
ветер,
м/с
пор.,
м/с
влажн.,
%
обл.,
%
осадки,
мм/ч
давл.,
гПа
погр.,
м
16 мая, вс
вс1600:00+18ю4125587 0.0 1016207
03:00+17ююв4135792 0.0 1016232
06:00+18ю4136075 0.0 1016302
09:00+25ююз6114116 0.0 1016567
12:00+28ююз71030100 0.0 10161323
15:00+29ююз693412 0.0 10152234
18:00+25ююз36496 0.0 1015135
21:00+21ююз335422 0.0 101620
17 мая, пн
пн1700:00+19ююз335883 0.0 101623
03:00+17юз116354 0.0 101711
06:00+20ююв116116 0.0 101761
09:00+25ююв11475 0.0 1018490
12:00+29ю34385 0.0 10181120
15:00+30ююз453110 0.0 10172852
18:00+28ю11466 0.0 101715
21:00+20зюз51164100 1.3 1018191
18 мая, вт
вт1800:00+20ссз1157100 0.0 101811
03:00+18юв116638 0.0 101811
06:00+20в126689 0.0 101981
09:00+25вюв335070 0.0 1018509
12:00+28вюв334112 0.0 10181032
15:00+29вюв34315 0.0 10181878
18:00+26в355530 0.0 1017147
21:00+20вюв410695 0.0 1018170
19 мая, ср
ср1900:00+19в397569 0.0 1017162
03:00+17вюв4107823 0.0 1018194
06:00+18вюв5107569 0.1 1018270
09:00+23вюв685754 0.1 1017589
12:00+25в784898 0.0 10171013
15:00+26в68415 0.0 10161230
18:00+23в511550 0.0 1014327
21:00+19вюв513640 0.0 1014250
20 мая, чт
чт2000:00+20юв616600 0.0 1014517
03:00+18юв613682 0.1 1013391
06:00+17ююв714712 0.0 1014631
09:00+20ююв7107153 0.0 1015916
12:00+16ююв81282100 0.4 1016635
15:00+19ююв8116683 0.5 1015805
18:00+19юв71268100 0.1 1014606
21:00+16ююз4871100 0.9 1015267